GTI4893 KCHS-EGNX

Flight info

Callsign GTI4893
Flight time 7h 22m
Altitude 31000
Route PLMTO3 CRE DCT RAPZZ Q135 RREGG Q117 SAWED Q108 BYSEL Q439 DUNEE DCT SHANK DCT BRADD N101B SCOTS N341B JOOPY/M084F310 DCT 49N050W 51N040W 52N030W 53N020W DCT MALOT/N0490F310 DCT GISTI DCT DEXEN UY124 AMPIT
Aircraft B77L/H-SDE1E2E3FGHIJ2J3J4J5M1RWXY/LB1D1

Departure

Time 2026-04-28 17:20
Airport Charleston International Airport (KCHS)

Arrival

Time 2026-04-29 00:42
Airport East Midlands Airport (EGNX)
Time Latitude Longitude Altitude Speed Heading
2026-04-28 16:56 32.87941 -80.03053 45 ft 0 kts 237°
2026-04-28 16:57 32.88002 -80.03013 46 ft 0 kts 251°
2026-04-28 16:57 32.88025 -80.03053 46 ft 250 kts 328°
2026-04-28 16:58 32.88039 -80.03064 45 ft 0 kts 328°
2026-04-28 17:13 32.88046 -80.03066 51 ft 4 kts 344°
2026-04-28 17:13 32.88114 -80.03051 45 ft 13 kts
2026-04-28 17:13 32.88199 -80.03084 45 ft 13 kts 329°
2026-04-28 17:14 32.88277 -80.03142 45 ft 13 kts 327°
2026-04-28 17:14 32.88350 -80.03197 45 ft 13 kts 327°
2026-04-28 17:14 32.88424 -80.03254 45 ft 13 kts 327°
2026-04-28 17:14 32.88502 -80.03312 45 ft 13 kts 328°
2026-04-28 17:15 32.88580 -80.03371 45 ft 13 kts 327°
2026-04-28 17:15 32.88657 -80.03430 45 ft 13 kts 327°
2026-04-28 17:15 32.88716 -80.03510 45 ft 13 kts 291°
2026-04-28 17:15 32.88742 -80.03601 45 ft 9 kts 286°
2026-04-28 17:16 32.88791 -80.03635 45 ft 7 kts 359°
2026-04-28 17:16 32.88835 -80.03630 45 ft 6 kts
2026-04-28 17:16 32.88907 -80.03618 45 ft 13 kts
2026-04-28 17:16 32.88987 -80.03603 45 ft 9 kts 17°
2026-04-28 17:17 32.89035 -80.03560 45 ft 9 kts 49°
2026-04-28 17:17 32.89078 -80.03499 45 ft 13 kts 51°
2026-04-28 17:17 32.89135 -80.03410 44 ft 14 kts 55°
2026-04-28 17:17 32.89179 -80.03330 45 ft 9 kts 58°
2026-04-28 17:18 32.89213 -80.03265 45 ft 9 kts 58°
2026-04-28 17:18 32.89237 -80.03252 45 ft 2 kts 359°
2026-04-28 17:18 32.89252 -80.03261 45 ft 2 kts 329°
2026-04-28 17:18 32.89266 -80.03271 45 ft 2 kts 329°
2026-04-28 17:19 32.89291 -80.03289 45 ft 15 kts 329°
2026-04-28 17:19 32.89621 -80.03531 43 ft 97 kts 328°
2026-04-28 17:19 32.90410 -80.04133 44 ft 171 kts 328°
2026-04-28 17:19 32.91508 -80.04964 500 ft 187 kts 325°
2026-04-28 17:20 32.92595 -80.05815 1266 ft 194 kts 335°
2026-04-28 17:20 32.93986 -80.05965 1624 ft 222 kts 16°
2026-04-28 17:20 32.95249 -80.04798 2146 ft 245 kts 58°
2026-04-28 17:20 32.95671 -80.02797 2752 ft 258 kts 89°
2026-04-28 17:21 32.95799 -80.00598 3038 ft 273 kts 81°
2026-04-28 17:21 32.96143 -79.98340 3600 ft 281 kts 77°
2026-04-28 17:21 32.96556 -79.96058 4285 ft 283 kts 76°
2026-04-28 17:22 32.97434 -79.91445 5677 ft 288 kts 75°
2026-04-28 17:22 32.97884 -79.89115 6410 ft 289 kts 75°
2026-04-28 17:22 32.98331 -79.86816 7078 ft 290 kts 74°
2026-04-28 17:23 32.99255 -79.82064 8242 ft 299 kts 75°
2026-04-28 17:23 32.99727 -79.79635 8832 ft 302 kts 75°
2026-04-28 17:23 33.00203 -79.77183 9459 ft 305 kts 75°
2026-04-28 17:23 33.00683 -79.74708 10087 ft 308 kts 75°
2026-04-28 17:24 33.01216 -79.72203 10406 ft 317 kts 66°
2026-04-28 17:24 33.02299 -79.69858 10528 ft 331 kts 53°
2026-04-28 17:24 33.03643 -79.67535 10653 ft 351 kts 53°
2026-04-28 17:24 33.05026 -79.65092 10808 ft 371 kts 54°
2026-04-28 17:25 33.06479 -79.62478 11146 ft 384 kts 54°
2026-04-28 17:25 33.09449 -79.57038 12252 ft 397 kts 55°
2026-04-28 17:25 33.10952 -79.54263 12916 ft 400 kts 55°
2026-04-28 17:26 33.12465 -79.51467 13565 ft 403 kts 55°
2026-04-28 17:26 33.13993 -79.48639 14156 ft 407 kts 55°
2026-04-28 17:26 33.15534 -79.45786 14696 ft 411 kts 55°
2026-04-28 17:26 33.17069 -79.42944 15264 ft 414 kts 55°
2026-04-28 17:27 33.18632 -79.40047 15891 ft 416 kts 54°
2026-04-28 17:27 33.20243 -79.37179 16467 ft 414 kts 49°
2026-04-28 17:27 33.22254 -79.34711 16817 ft 418 kts 38°
2026-04-28 17:27 33.24486 -79.32467 17280 ft 422 kts 37°
2026-04-28 17:28 33.26752 -79.30214 17821 ft 425 kts 37°
2026-04-28 17:28 33.31261 -79.25639 18899 ft 431 kts 38°
2026-04-28 17:28 33.33531 -79.23285 19363 ft 434 kts 38°
2026-04-28 17:29 33.35811 -79.20898 19828 ft 437 kts 38°
2026-04-28 17:29 33.38100 -79.18489 20298 ft 440 kts 38°
2026-04-28 17:29 33.40405 -79.16056 20749 ft 443 kts 38°
2026-04-28 17:30 33.45051 -79.11146 21659 ft 449 kts 38°
2026-04-28 17:30 33.49736 -79.06190 22464 ft 456 kts 38°
2026-04-28 17:30 33.52122 -79.03663 22884 ft 459 kts 38°
2026-04-28 17:31 33.54519 -79.01122 23382 ft 460 kts 38°
2026-04-28 17:31 33.59336 -78.96013 24160 ft 465 kts 38°
2026-04-28 17:32 33.64203 -78.90842 24900 ft 469 kts 38°
2026-04-28 17:32 33.66647 -78.88241 25301 ft 470 kts 38°
2026-04-28 17:32 33.69065 -78.85667 25675 ft 472 kts 38°
2026-04-28 17:32 33.71526 -78.83044 26052 ft 474 kts 38°
2026-04-28 17:33 33.74001 -78.80405 26359 ft 477 kts 38°
2026-04-28 17:33 33.76493 -78.77747 26693 ft 480 kts 38°
2026-04-28 17:33 33.78994 -78.75076 27075 ft 482 kts 38°
2026-04-28 17:33 33.80658 -78.73312 27281 ft 482 kts 36°
2026-04-28 17:34 33.84402 -78.70455 27729 ft 475 kts 20°
2026-04-28 17:34 33.87443 -78.68920 28090 ft 474 kts 18°
2026-04-28 17:34 33.90505 -78.67417 28407 ft 477 kts 19°
2026-04-28 17:34 33.93533 -78.65891 28724 ft 479 kts 19°
2026-04-28 17:35 33.96597 -78.64293 29051 ft 481 kts 19°
2026-04-28 17:35 33.99664 -78.62652 29364 ft 483 kts 20°
2026-04-28 17:35 34.02735 -78.60987 29679 ft 485 kts 20°
2026-04-28 17:35 34.05815 -78.59308 29964 ft 487 kts 20°
2026-04-28 17:36 34.08901 -78.57624 30284 ft 487 kts 20°
2026-04-28 17:36 34.11983 -78.55945 30633 ft 485 kts 20°
2026-04-28 17:36 34.15055 -78.54272 30966 ft 484 kts 20°
2026-04-28 17:36 34.18125 -78.52602 31165 ft 486 kts 20°
2026-04-28 17:37 34.24201 -78.48972 31249 ft 497 kts 27°
2026-04-28 17:37 34.29793 -78.43982 31258 ft 502 kts 37°
2026-04-28 17:38 34.34982 -78.38347 31274 ft 500 kts 38°
2026-04-28 17:38 34.40156 -78.32733 31293 ft 499 kts 37°
2026-04-28 17:39 34.45350 -78.27149 31293 ft 500 kts 37°
2026-04-28 17:40 34.53151 -78.18783 31231 ft 503 kts 37°
2026-04-28 17:40 34.58397 -78.13139 31213 ft 505 kts 37°
2026-04-28 17:41 34.63660 -78.07464 31163 ft 507 kts 37°
2026-04-28 17:41 34.68894 -78.01810 31163 ft 508 kts 37°
2026-04-28 17:42 34.74181 -77.96091 31193 ft 509 kts 37°
2026-04-28 17:42 34.79471 -77.90356 31197 ft 509 kts 37°
2026-04-28 17:43 34.84754 -77.84618 31225 ft 509 kts 37°
2026-04-28 17:43 34.90063 -77.78944 31230 ft 507 kts 36°
2026-04-28 17:44 34.95430 -77.73442 31221 ft 507 kts 35°
2026-04-28 17:44 35.00827 -77.67893 31240 ft 508 kts 36°
2026-04-28 17:45 35.06207 -77.62309 31252 ft 508 kts 36°
2026-04-28 17:45 35.11586 -77.56712 31289 ft 508 kts 36°
2026-04-28 17:46 35.17211 -77.51671 31211 ft 502 kts 26°
2026-04-28 17:46 35.23200 -77.47289 31198 ft 502 kts 26°
2026-04-28 17:47 35.29196 -77.42879 31198 ft 503 kts 26°
2026-04-28 17:47 35.35178 -77.38413 31212 ft 504 kts 26°
2026-04-28 17:48 35.41120 -77.33948 31235 ft 505 kts 26°
2026-04-28 17:48 35.47103 -77.29447 31212 ft 505 kts 26°
2026-04-28 17:49 35.53090 -77.24938 31200 ft 505 kts 26°
2026-04-28 17:49 35.59070 -77.20426 31197 ft 504 kts 27°
2026-04-28 17:50 35.65010 -77.15937 31186 ft 504 kts 27°
2026-04-28 17:50 35.70984 -77.11415 31190 ft 504 kts 27°
2026-04-28 17:51 35.76953 -77.06884 31213 ft 504 kts 27°
2026-04-28 17:51 35.82914 -77.02348 31249 ft 504 kts 27°
2026-04-28 17:52 35.88882 -76.97800 31196 ft 505 kts 27°
2026-04-28 17:52 35.97956 -76.91412 31232 ft 502 kts 23°
2026-04-28 17:53 36.04133 -76.87366 31257 ft 503 kts 22°
2026-04-28 17:53 36.10313 -76.83291 31243 ft 504 kts 23°
2026-04-28 17:54 36.16448 -76.79205 31225 ft 504 kts 23°
2026-04-28 17:54 36.22617 -76.75077 31231 ft 504 kts 23°
2026-04-28 17:55 36.28778 -76.70946 31249 ft 504 kts 23°
2026-04-28 17:55 36.34940 -76.66809 31270 ft 504 kts 23°
2026-04-28 17:56 36.41062 -76.62694 31274 ft 504 kts 23°
2026-04-28 17:56 36.47231 -76.58539 31275 ft 504 kts 23°
2026-04-28 17:57 36.53405 -76.54372 31281 ft 506 kts 23°
2026-04-28 17:57 36.59593 -76.50190 31218 ft 506 kts 23°
2026-04-28 17:58 36.65780 -76.45999 31212 ft 506 kts 23°
2026-04-28 17:58 36.71917 -76.41833 31193 ft 506 kts 23°
2026-04-28 17:59 36.78091 -76.37636 31182 ft 506 kts 23°
2026-04-28 17:59 36.84264 -76.33431 31265 ft 505 kts 23°
2026-04-28 18:00 36.90436 -76.29220 31264 ft 505 kts 23°
2026-04-28 18:00 36.96563 -76.25033 31277 ft 506 kts 23°
2026-04-28 18:01 37.02741 -76.20803 31264 ft 507 kts 23°
2026-04-28 18:01 37.08927 -76.16557 31205 ft 507 kts 23°
2026-04-28 18:02 37.15118 -76.12301 31233 ft 508 kts 23°
2026-04-28 18:02 37.21276 -76.08060 31230 ft 508 kts 23°
2026-04-28 18:03 37.27473 -76.03783 31250 ft 508 kts 23°
2026-04-28 18:03 37.33670 -75.99498 31253 ft 508 kts 23°
2026-04-28 18:04 37.39868 -75.95205 31255 ft 509 kts 23°
2026-04-28 18:04 37.46024 -75.90932 31227 ft 509 kts 23°
2026-04-28 18:05 37.51217 -75.87322 31219 ft 509 kts 23°
2026-04-28 18:05 37.58368 -75.82179 31212 ft 510 kts 25°
2026-04-28 18:06 37.64444 -75.77546 31216 ft 510 kts 26°
2026-04-28 18:06 37.70520 -75.72932 31213 ft 510 kts 25°
2026-04-28 18:07 37.76562 -75.68374 31215 ft 509 kts 25°
2026-04-28 18:07 37.82642 -75.63783 31229 ft 509 kts 25°
2026-04-28 18:08 37.88595 -75.58906 31217 ft 511 kts 29°
2026-04-28 18:08 37.94433 -75.53773 31221 ft 511 kts 30°
2026-04-28 18:09 38.00244 -75.48693 31251 ft 511 kts 29°
2026-04-28 18:09 38.06108 -75.43604 31233 ft 511 kts 29°
2026-04-28 18:10 38.12061 -75.38720 31234 ft 509 kts 27°
2026-04-28 18:10 38.18032 -75.33903 31222 ft 508 kts 27°
2026-04-28 18:11 38.23952 -75.29125 31228 ft 505 kts 24°
2026-04-28 18:11 38.30273 -75.25456 31229 ft 496 kts 14°
2026-04-28 18:12 38.36751 -75.22437 31232 ft 496 kts 14°
2026-04-28 18:12 38.43226 -75.19348 31244 ft 497 kts 15°
2026-04-28 18:13 38.49656 -75.16226 31242 ft 498 kts 15°
2026-04-28 18:13 38.56141 -75.13068 31240 ft 499 kts 15°
2026-04-28 18:14 38.62577 -75.09687 31231 ft 505 kts 22°
2026-04-28 18:14 38.68509 -75.04773 31231 ft 513 kts 34°
2026-04-28 18:15 38.73762 -74.98624 31236 ft 515 kts 38°
2026-04-28 18:15 38.79048 -74.92475 31228 ft 511 kts 34°
2026-04-28 18:16 38.84570 -74.86786 31235 ft 508 kts 33°
2026-04-28 18:16 38.90100 -74.81129 31226 ft 509 kts 34°
2026-04-28 18:17 38.95610 -74.75425 31227 ft 509 kts 34°
2026-04-28 18:17 39.01067 -74.69708 31232 ft 510 kts 34°
2026-04-28 18:18 39.06544 -74.63906 31240 ft 511 kts 34°
2026-04-28 18:18 39.11106 -74.59074 31239 ft 511 kts 34°
2026-04-28 18:19 39.17520 -74.52241 31241 ft 512 kts 35°
2026-04-28 18:19 39.22977 -74.46321 31253 ft 513 kts 35°
2026-04-28 18:20 39.28410 -74.40431 31238 ft 514 kts 36°
2026-04-28 18:20 39.33859 -74.34447 31249 ft 514 kts 36°
2026-04-28 18:21 39.39295 -74.28438 31223 ft 514 kts 36°
2026-04-28 18:21 39.44723 -74.22440 31225 ft 513 kts 36°
2026-04-28 18:22 39.50134 -74.16431 31239 ft 512 kts 36°
2026-04-28 18:22 39.55120 -74.09869 31235 ft 519 kts 47°
2026-04-28 18:23 39.59611 -74.02554 31244 ft 518 kts 46°
2026-04-28 18:23 39.64190 -73.95345 31248 ft 518 kts 45°
2026-04-28 18:24 39.68003 -73.89360 31244 ft 518 kts 45°
2026-04-28 18:24 39.73354 -73.80917 31245 ft 518 kts 46°
2026-04-28 18:25 39.77892 -73.73728 31269 ft 517 kts 45°
2026-04-28 18:26 39.84713 -73.62909 31257 ft 513 kts 45°
2026-04-28 18:26 39.89223 -73.55770 31233 ft 508 kts 44°
2026-04-28 18:27 39.94160 -73.49374 31264 ft 496 kts 36°
2026-04-28 18:27 39.99292 -73.43468 31239 ft 496 kts 36°
2026-04-28 18:28 40.04431 -73.37451 31256 ft 497 kts 37°
2026-04-28 18:28 40.09561 -73.31375 31254 ft 499 kts 37°
2026-04-28 18:29 40.14703 -73.25268 31244 ft 500 kts 37°
2026-04-28 18:29 40.19832 -73.19123 31246 ft 500 kts 37°
2026-04-28 18:30 40.24918 -73.13022 31243 ft 499 kts 37°
2026-04-28 18:30 40.30016 -73.06870 31246 ft 498 kts 38°
2026-04-28 18:31 40.34652 -73.00051 31241 ft 506 kts 49°
2026-04-28 18:31 40.38692 -72.92498 31258 ft 505 kts 50°
2026-04-28 18:32 40.42712 -72.84953 31244 ft 503 kts 49°
2026-04-28 18:32 40.46711 -72.77509 31233 ft 501 kts 49°
2026-04-28 18:33 40.50735 -72.70048 31241 ft 500 kts 49°
2026-04-28 18:33 40.54749 -72.62595 31237 ft 499 kts 49°
2026-04-28 18:34 40.58750 -72.55144 31249 ft 499 kts 49°
2026-04-28 18:34 40.62718 -72.47735 31235 ft 498 kts 49°
2026-04-28 18:35 40.66703 -72.40274 31238 ft 498 kts 49°
2026-04-28 18:35 40.70684 -72.32803 31231 ft 498 kts 49°
2026-04-28 18:36 40.74661 -72.25321 31236 ft 498 kts 49°
2026-04-28 18:36 40.78631 -72.17835 31227 ft 498 kts 49°
2026-04-28 18:37 40.82593 -72.10344 31221 ft 497 kts 49°
2026-04-28 18:37 40.86521 -72.02901 31217 ft 497 kts 49°
2026-04-28 18:38 40.90463 -71.95413 31216 ft 496 kts 49°
2026-04-28 18:38 40.94397 -71.87922 31229 ft 495 kts 49°
2026-04-28 18:39 40.98307 -71.80456 31212 ft 492 kts 49°
2026-04-28 18:39 41.02191 -71.73023 31212 ft 490 kts 49°
2026-04-28 18:40 41.06054 -71.65616 31212 ft 488 kts 49°
2026-04-28 18:40 41.09879 -71.58264 31209 ft 488 kts 49°
2026-04-28 18:41 41.13754 -71.50807 31217 ft 497 kts 50°
2026-04-28 18:41 41.17724 -71.43148 31223 ft 508 kts 51°
2026-04-28 18:42 41.21711 -71.35418 31211 ft 507 kts 51°
2026-04-28 18:42 41.25680 -71.27701 31210 ft 505 kts 51°
2026-04-28 18:43 41.29635 -71.20000 31216 ft 503 kts 51°
2026-04-28 18:43 41.33573 -71.12315 31219 ft 502 kts 51°
2026-04-28 18:44 41.37472 -71.04688 31222 ft 501 kts 51°
2026-04-28 18:44 41.43347 -70.93163 31227 ft 501 kts 51°
2026-04-28 18:45 41.47259 -70.85461 31233 ft 501 kts 51°
2026-04-28 18:45 41.51154 -70.77772 31216 ft 499 kts 51°
2026-04-28 18:46 41.55005 -70.70152 31232 ft 497 kts 51°
2026-04-28 18:46 41.58863 -70.62500 31243 ft 496 kts 51°
2026-04-28 18:47 41.62707 -70.54858 31237 ft 495 kts 51°
2026-04-28 18:47 41.66539 -70.47219 31246 ft 494 kts 51°
2026-04-28 18:48 41.70358 -70.39588 31235 ft 493 kts 51°
2026-04-28 18:48 41.74144 -70.32003 31236 ft 493 kts 51°
2026-04-28 18:49 41.76688 -70.26895 31203 ft 493 kts 51°
2026-04-28 18:49 41.81738 -70.16732 31227 ft 492 kts 51°
2026-04-28 18:50 41.85517 -70.09101 31211 ft 490 kts 51°
2026-04-28 18:50 41.89281 -70.01485 31219 ft 489 kts 51°
2026-04-28 18:51 41.93006 -69.93928 31233 ft 488 kts 51°
2026-04-28 18:51 41.96739 -69.86335 31257 ft 487 kts 51°
2026-04-28 18:52 42.00464 -69.78741 31250 ft 486 kts 51°
2026-04-28 18:52 42.04178 -69.71150 31243 ft 485 kts 51°
2026-04-28 18:53 42.07878 -69.63566 31243 ft 484 kts 51°
2026-04-28 18:53 42.11544 -69.56035 31246 ft 484 kts 51°
2026-04-28 18:54 42.15228 -69.48449 31257 ft 484 kts 51°
2026-04-28 18:54 42.18900 -69.40866 31247 ft 483 kts 51°
2026-04-28 18:55 42.21945 -69.34565 31246 ft 482 kts 51°
2026-04-28 18:55 42.26186 -69.25765 31251 ft 481 kts 51°
2026-04-28 18:56 42.29822 -69.18200 31273 ft 480 kts 51°
2026-04-28 18:56 42.33445 -69.10643 31253 ft 478 kts 51°
2026-04-28 18:57 42.37044 -69.03116 31253 ft 476 kts 51°
2026-04-28 18:57 42.40623 -68.95614 31249 ft 474 kts 51°
2026-04-28 18:58 42.44166 -68.88171 31262 ft 473 kts 51°
2026-04-28 18:58 42.47725 -68.80673 31270 ft 473 kts 51°
2026-04-28 18:59 42.51274 -68.73178 31248 ft 473 kts 51°
2026-04-28 18:59 42.54817 -68.65676 31267 ft 472 kts 51°
2026-04-28 19:00 42.58350 -68.58177 31269 ft 472 kts 51°
2026-04-28 19:00 42.61850 -68.50731 31284 ft 472 kts 51°
2026-04-28 19:01 42.64981 -68.42848 31266 ft 475 kts 58°
2026-04-28 19:01 42.67836 -68.34773 31256 ft 473 kts 58°
2026-04-28 19:02 42.70692 -68.26730 31255 ft 472 kts 58°
2026-04-28 19:02 42.73552 -68.18709 31253 ft 471 kts 58°
2026-04-28 19:03 42.76392 -68.10739 31232 ft 469 kts 58°
2026-04-28 19:03 42.79218 -68.02783 31226 ft 466 kts 58°
2026-04-28 19:04 42.82026 -67.94855 31228 ft 464 kts 58°
2026-04-28 19:04 42.84823 -67.86939 31231 ft 463 kts 58°
2026-04-28 19:05 42.87596 -67.79068 31238 ft 464 kts 58°
2026-04-28 19:05 42.90386 -67.71122 31235 ft 465 kts 58°
2026-04-28 19:06 42.92708 -67.64492 31239 ft 466 kts 58°
2026-04-28 19:06 42.95975 -67.55137 31245 ft 467 kts 58°
2026-04-28 19:07 42.98765 -67.47118 31231 ft 468 kts 58°
2026-04-28 19:07 43.01531 -67.39147 31232 ft 467 kts 58°
2026-04-28 19:08 43.04306 -67.31127 31237 ft 466 kts 58°
2026-04-28 19:08 43.07073 -67.23108 31259 ft 466 kts 58°
2026-04-28 19:09 43.09804 -67.15166 31235 ft 463 kts 58°
2026-04-28 19:09 43.12534 -67.07213 31235 ft 461 kts 58°
2026-04-28 19:10 43.15314 -66.99346 31233 ft 456 kts 54°
2026-04-28 19:10 43.18692 -66.92085 31245 ft 452 kts 51°
2026-04-28 19:11 43.22137 -66.84868 31245 ft 453 kts 51°
2026-04-28 19:11 43.25551 -66.77644 31235 ft 455 kts 51°
2026-04-28 19:12 43.28987 -66.70328 31235 ft 457 kts 52°
2026-04-28 19:12 43.32448 -66.62939 31260 ft 467 kts 53°
2026-04-28 19:13 43.36013 -66.55311 31245 ft 480 kts 54°
2026-04-28 19:13 43.39591 -66.47623 31230 ft 480 kts 54°
2026-04-28 19:14 43.43178 -66.39890 31232 ft 478 kts 54°
2026-04-28 19:14 43.46748 -66.32184 31231 ft 477 kts 55°
2026-04-28 19:15 43.50317 -66.24461 31248 ft 479 kts 55°
2026-04-28 19:15 43.52683 -66.19332 31231 ft 480 kts 55°
2026-04-28 19:16 43.57451 -66.08966 31230 ft 482 kts 55°
2026-04-28 19:16 43.61041 -66.01135 31241 ft 485 kts 57°
2026-04-28 19:17 43.64705 -65.93124 31250 ft 502 kts 57°
2026-04-28 19:17 43.68478 -65.84848 31260 ft 516 kts 57°
2026-04-28 19:18 43.72288 -65.76466 31245 ft 518 kts 57°
2026-04-28 19:18 43.76112 -65.68030 31253 ft 518 kts 58°
2026-04-28 19:19 43.79931 -65.59579 31261 ft 517 kts 58°
2026-04-28 19:19 43.83713 -65.51188 31263 ft 517 kts 58°
2026-04-28 19:20 43.87510 -65.42739 31289 ft 516 kts 58°
2026-04-28 19:20 43.91296 -65.34292 31287 ft 516 kts 58°
2026-04-28 19:21 43.95104 -65.25766 31289 ft 525 kts 59°
2026-04-28 19:21 43.98965 -65.17098 31307 ft 529 kts 59°
2026-04-28 19:22 44.01522 -65.11343 31299 ft 528 kts 59°
2026-04-28 19:22 44.06643 -64.99785 31302 ft 527 kts 59°
2026-04-28 19:23 44.10472 -64.91112 31309 ft 525 kts 59°
2026-04-28 19:23 44.14286 -64.82447 31317 ft 525 kts 59°
2026-04-28 19:24 44.18067 -64.73829 31316 ft 525 kts 59°
2026-04-28 19:24 44.21871 -64.65135 31318 ft 525 kts 59°
2026-04-28 19:25 44.25029 -64.57896 31314 ft 526 kts 59°
2026-04-28 19:25 44.29471 -64.47682 31316 ft 528 kts 59°
2026-04-28 19:26 44.33252 -64.38962 31319 ft 529 kts 59°
2026-04-28 19:26 44.37057 -64.30157 31316 ft 530 kts 59°
2026-04-28 19:27 44.40217 -64.22824 31328 ft 530 kts 59°
2026-04-28 19:27 44.44637 -64.12537 31323 ft 531 kts 59°
2026-04-28 19:28 44.48432 -64.03674 31325 ft 531 kts 60°
2026-04-28 19:28 44.51573 -63.96283 31328 ft 531 kts 60°
2026-04-28 19:29 44.54652 -63.88839 31325 ft 531 kts 61°
2026-04-28 19:29 44.59543 -63.76869 31338 ft 532 kts 61°
2026-04-28 19:30 44.62625 -63.69323 31337 ft 532 kts 61°
2026-04-28 19:30 44.66280 -63.60374 31334 ft 532 kts 60°
2026-04-28 19:31 44.69959 -63.51345 31338 ft 533 kts 60°
2026-04-28 19:31 44.73635 -63.42294 31333 ft 533 kts 61°
2026-04-28 19:32 44.77304 -63.33227 31335 ft 533 kts 61°
2026-04-28 19:32 44.80945 -63.24198 31334 ft 534 kts 60°
2026-04-28 19:33 44.84609 -63.15089 31351 ft 534 kts 60°
2026-04-28 19:33 44.88266 -63.05962 31355 ft 535 kts 60°
2026-04-28 19:34 44.91919 -62.96818 31359 ft 535 kts 60°
2026-04-28 19:34 44.95544 -62.87712 31356 ft 536 kts 60°
2026-04-28 19:35 44.99194 -62.78517 31363 ft 537 kts 60°
2026-04-28 19:35 45.02841 -62.69296 31363 ft 538 kts 60°
2026-04-28 19:36 45.06486 -62.60048 31368 ft 539 kts 60°
2026-04-28 19:36 45.10104 -62.50843 31363 ft 539 kts 60°
2026-04-28 19:37 45.13151 -62.43064 31360 ft 539 kts 60°
2026-04-28 19:37 45.17366 -62.32269 31368 ft 539 kts 60°
2026-04-28 19:38 45.20985 -62.22963 31372 ft 540 kts 59°
2026-04-28 19:38 45.24604 -62.13629 31369 ft 540 kts 60°
2026-04-28 19:39 45.28193 -62.04342 31379 ft 541 kts 60°
2026-04-28 19:39 45.31804 -61.94965 31378 ft 541 kts 60°
2026-04-28 19:40 45.35407 -61.85575 31381 ft 541 kts 60°
2026-04-28 19:40 45.39002 -61.76178 31390 ft 541 kts 60°
2026-04-28 19:41 45.42564 -61.66834 31386 ft 540 kts 60°
2026-04-28 19:41 45.46139 -61.57420 31386 ft 541 kts 59°
2026-04-28 19:42 45.49709 -61.47989 31388 ft 541 kts 60°
2026-04-28 19:42 45.53274 -61.38542 31386 ft 541 kts 60°
2026-04-28 19:43 45.56833 -61.29075 31396 ft 541 kts 60°
2026-04-28 19:43 45.60355 -61.19673 31395 ft 540 kts 59°
2026-04-28 19:44 45.63889 -61.10209 31393 ft 539 kts 59°
2026-04-28 19:44 45.67407 -61.00754 31394 ft 538 kts 60°
2026-04-28 19:45 45.70912 -60.91302 31415 ft 537 kts 60°
2026-04-28 19:45 45.74369 -60.81944 31401 ft 535 kts 60°
2026-04-28 19:46 45.77832 -60.72539 31409 ft 533 kts 60°
2026-04-28 19:46 45.81278 -60.63152 31390 ft 532 kts 60°
2026-04-28 19:47 45.84672 -60.53868 31402 ft 523 kts 60°
2026-04-28 19:47 45.88016 -60.44689 31420 ft 518 kts 60°
2026-04-28 19:48 45.91351 -60.35511 31399 ft 519 kts 60°
2026-04-28 19:48 45.94685 -60.26303 31401 ft 520 kts 60°
2026-04-28 19:49 45.98012 -60.17079 31401 ft 520 kts 60°
2026-04-28 19:49 46.01312 -60.07901 31400 ft 520 kts 60°
2026-04-28 19:50 46.06278 -59.94027 31412 ft 520 kts 60°
2026-04-28 19:51 46.09559 -59.84822 31411 ft 507 kts 62°
2026-04-28 19:51 46.12705 -59.75957 31415 ft 497 kts 62°
2026-04-28 19:52 46.15862 -59.67045 31429 ft 500 kts 62°
2026-04-28 19:52 46.19030 -59.58070 31428 ft 503 kts 62°
2026-04-28 19:53 46.22184 -59.49100 31423 ft 493 kts 62°
2026-04-28 19:53 46.25243 -59.40370 31423 ft 495 kts 62°
2026-04-28 19:54 46.28387 -59.31378 31434 ft 504 kts 62°
2026-04-28 19:54 46.31537 -59.22329 31422 ft 503 kts 62°
2026-04-28 19:55 46.34649 -59.13353 31416 ft 490 kts 62°
2026-04-28 19:55 46.37637 -59.04707 31425 ft 482 kts 62°
2026-04-28 19:56 46.40645 -58.95985 31438 ft 486 kts 62°
2026-04-28 19:56 46.43666 -58.87195 31438 ft 488 kts 62°
2026-04-28 19:57 46.46686 -58.78373 31434 ft 482 kts 63°
2026-04-28 19:57 46.49593 -58.69849 31424 ft 471 kts 63°
2026-04-28 19:58 46.52512 -58.61268 31436 ft 481 kts 62°
2026-04-28 19:58 46.55510 -58.52435 31438 ft 492 kts 62°
2026-04-28 19:59 46.58517 -58.43532 31424 ft 489 kts 62°
2026-04-28 19:59 46.61482 -58.34724 31420 ft 487 kts 62°
2026-04-28 20:00 46.64449 -58.25881 31425 ft 485 kts 63°
2026-04-28 20:00 46.67399 -58.17058 31425 ft 484 kts 63°
2026-04-28 20:01 46.70339 -58.08239 31442 ft 483 kts 63°
2026-04-28 20:01 46.73251 -57.99473 31423 ft 478 kts 63°
2026-04-28 20:02 46.76107 -57.90845 31424 ft 473 kts 63°
2026-04-28 20:02 46.78953 -57.82218 31427 ft 475 kts 63°
2026-04-28 20:03 46.81853 -57.73408 31437 ft 487 kts 63°
2026-04-28 20:03 46.84744 -57.64584 31425 ft 474 kts 63°
2026-04-28 20:04 46.87547 -57.55997 31439 ft 471 kts 63°
2026-04-28 20:04 46.90370 -57.47330 31438 ft 473 kts 63°
2026-04-28 20:05 46.93195 -57.38622 31438 ft 475 kts 63°
2026-04-28 20:05 46.96017 -57.29895 31449 ft 474 kts 63°
2026-04-28 20:06 46.98801 -57.21255 31429 ft 471 kts 63°
2026-04-28 20:06 47.01575 -57.12615 31426 ft 467 kts 63°
2026-04-28 20:07 47.04325 -57.04025 31429 ft 465 kts 63°
2026-04-28 20:07 47.07079 -56.95394 31453 ft 471 kts 63°
2026-04-28 20:08 47.09820 -56.86773 31415 ft 466 kts 63°
2026-04-28 20:08 47.12541 -56.78183 31423 ft 463 kts 63°
2026-04-28 20:09 47.15251 -56.69599 31416 ft 463 kts 63°
2026-04-28 20:09 47.17956 -56.61005 31408 ft 464 kts 63°
2026-04-28 20:10 47.20641 -56.52444 31408 ft 463 kts 63°
2026-04-28 20:10 47.23329 -56.43844 31398 ft 462 kts 63°
2026-04-28 20:11 47.26004 -56.35259 31387 ft 461 kts 63°
2026-04-28 20:11 47.28665 -56.26687 31377 ft 460 kts 63°
2026-04-28 20:12 47.31297 -56.18179 31399 ft 459 kts 63°
2026-04-28 20:12 47.33944 -56.09597 31376 ft 460 kts 63°
2026-04-28 20:13 47.36587 -56.00996 31363 ft 461 kts 63°
2026-04-28 20:13 47.39228 -55.92372 31354 ft 462 kts 63°
2026-04-28 20:14 47.41849 -55.83785 31354 ft 462 kts 63°
2026-04-28 20:14 47.44480 -55.75131 31356 ft 462 kts 63°
2026-04-28 20:15 47.47100 -55.66487 31360 ft 460 kts 63°
2026-04-28 20:15 47.49706 -55.57858 31370 ft 459 kts 63°
2026-04-28 20:16 47.52280 -55.49306 31370 ft 458 kts 63°
2026-04-28 20:16 47.54861 -55.40700 31377 ft 457 kts 63°
2026-04-28 20:17 47.57438 -55.32080 31403 ft 458 kts 63°
2026-04-28 20:17 47.60010 -55.23447 31390 ft 459 kts 63°
2026-04-28 20:18 47.62580 -55.14786 31391 ft 459 kts 64°
2026-04-28 20:18 47.65130 -55.06164 31392 ft 460 kts 64°
2026-04-28 20:19 47.67693 -54.97469 31401 ft 460 kts 63°
2026-04-28 20:19 47.70249 -54.88764 31407 ft 460 kts 63°
2026-04-28 20:20 47.72797 -54.80057 31401 ft 459 kts 63°
2026-04-28 20:20 47.75316 -54.71417 31401 ft 459 kts 63°
2026-04-28 20:21 47.77845 -54.62717 31403 ft 458 kts 64°
2026-04-28 20:21 47.80365 -54.54013 31399 ft 458 kts 64°
2026-04-28 20:22 47.82878 -54.45300 31403 ft 458 kts 64°
2026-04-28 20:22 47.85371 -54.36629 31403 ft 459 kts 64°
2026-04-28 20:23 47.87879 -54.27873 31397 ft 460 kts 64°
2026-04-28 20:23 47.90384 -54.19097 31404 ft 461 kts 64°
2026-04-28 20:24 47.92866 -54.10365 31407 ft 461 kts 64°
2026-04-28 20:24 47.95361 -54.01559 31390 ft 461 kts 64°
2026-04-28 20:25 47.97848 -53.92752 31406 ft 461 kts 64°
2026-04-28 20:25 48.00327 -53.83936 31403 ft 460 kts 64°
2026-04-28 20:26 48.02782 -53.75173 31402 ft 460 kts 64°
2026-04-28 20:26 48.05237 -53.66348 31407 ft 460 kts 64°
2026-04-28 20:27 48.07690 -53.57518 31403 ft 460 kts 64°
2026-04-28 20:27 48.10142 -53.48683 31401 ft 460 kts 64°
2026-04-28 20:28 48.12576 -53.39881 31407 ft 461 kts 64°
2026-04-28 20:28 48.15021 -53.30998 31402 ft 462 kts 64°
2026-04-28 20:29 48.17462 -53.22095 31396 ft 462 kts 64°
2026-04-28 20:29 48.19899 -53.13171 31394 ft 463 kts 64°
2026-04-28 20:30 48.22312 -53.04299 31407 ft 463 kts 64°
2026-04-28 20:30 48.24734 -52.95359 31405 ft 463 kts 64°
2026-04-28 20:31 48.27152 -52.86404 31410 ft 463 kts 64°
2026-04-28 20:31 48.29564 -52.77432 31415 ft 463 kts 64°
2026-04-28 20:32 48.31968 -52.68457 31420 ft 463 kts 64°
2026-04-28 20:32 48.34351 -52.59526 31416 ft 463 kts 65°
2026-04-28 20:33 48.36744 -52.50523 31415 ft 464 kts 65°
2026-04-28 20:33 48.39135 -52.41494 31431 ft 465 kts 65°
2026-04-28 20:34 48.41506 -52.32504 31416 ft 466 kts 65°
2026-04-28 20:34 48.43887 -52.23438 31428 ft 466 kts 65°
2026-04-28 20:35 48.46263 -52.14358 31426 ft 466 kts 65°
2026-04-28 20:35 48.48637 -52.05253 31430 ft 467 kts 65°
2026-04-28 20:36 48.51009 -51.96128 31427 ft 467 kts 65°
2026-04-28 20:36 48.53366 -51.87069 31430 ft 467 kts 65°
2026-04-28 20:37 48.55728 -51.77967 31426 ft 465 kts 65°
2026-04-28 20:37 48.58078 -51.68869 31450 ft 465 kts 65°
2026-04-28 20:38 48.60402 -51.59835 31433 ft 465 kts 65°
2026-04-28 20:38 48.62735 -51.50727 31432 ft 464 kts 65°
2026-04-28 20:39 48.65059 -51.41618 31432 ft 465 kts 65°
2026-04-28 20:39 48.67377 -51.32496 31444 ft 465 kts 65°
2026-04-28 20:40 48.69678 -51.23406 31437 ft 466 kts 65°
2026-04-28 20:40 48.71992 -51.14228 31439 ft 467 kts 65°
2026-04-28 20:41 48.74302 -51.05023 31437 ft 468 kts 65°
2026-04-28 20:41 48.76609 -50.95795 31439 ft 469 kts 65°
2026-04-28 20:42 48.78896 -50.86610 31438 ft 469 kts 65°
2026-04-28 20:42 48.81192 -50.77349 31448 ft 469 kts 65°
2026-04-28 20:43 48.83485 -50.68066 31439 ft 470 kts 65°
2026-04-28 20:43 48.85769 -50.58773 31443 ft 470 kts 65°
2026-04-28 20:44 48.88032 -50.49534 31439 ft 470 kts 65°
2026-04-28 20:44 48.90300 -50.40230 31440 ft 470 kts 66°
2026-04-28 20:45 48.92561 -50.30920 31437 ft 469 kts 66°
2026-04-28 20:45 48.94814 -50.21603 31440 ft 469 kts 66°
2026-04-28 20:46 48.97044 -50.12341 31438 ft 469 kts 66°
2026-04-28 20:46 48.99282 -50.03009 31453 ft 469 kts 66°
2026-04-28 20:47 49.01555 -49.93682 31441 ft 470 kts 65°
2026-04-28 20:47 49.03904 -49.84395 31442 ft 470 kts 65°
2026-04-28 20:48 49.06256 -49.75095 31447 ft 471 kts 65°
2026-04-28 20:48 49.08579 -49.65822 31448 ft 471 kts 65°
2026-04-28 20:49 49.10905 -49.56466 31440 ft 472 kts 65°
2026-04-28 20:49 49.13224 -49.47089 31440 ft 472 kts 65°
2026-04-28 20:50 49.15538 -49.37697 31441 ft 473 kts 65°
2026-04-28 20:50 49.17831 -49.28352 31437 ft 473 kts 65°
2026-04-28 20:51 49.20133 -49.18928 31453 ft 473 kts 65°
2026-04-28 20:51 49.22430 -49.09491 31443 ft 474 kts 65°
2026-04-28 20:52 49.24722 -49.00030 31440 ft 474 kts 65°
2026-04-28 20:52 49.26991 -48.90622 31440 ft 474 kts 65°
2026-04-28 20:53 49.30406 -48.76390 31449 ft 475 kts 66°
2026-04-28 20:53 49.32674 -48.66882 31445 ft 475 kts 66°
2026-04-28 20:54 49.34936 -48.57360 31437 ft 475 kts 66°
2026-04-28 20:54 49.37175 -48.47894 31437 ft 475 kts 66°
2026-04-28 20:55 49.39421 -48.38357 31436 ft 475 kts 66°
2026-04-28 20:55 49.41659 -48.28812 31441 ft 475 kts 66°
2026-04-28 20:56 49.43879 -48.19306 31430 ft 476 kts 66°
2026-04-28 20:56 49.46110 -48.09709 31431 ft 477 kts 66°
2026-04-28 20:57 49.48335 -48.00089 31438 ft 478 kts 66°
2026-04-28 20:57 49.50555 -47.90451 31431 ft 478 kts 66°
2026-04-28 20:58 49.52754 -47.80860 31435 ft 479 kts 66°
2026-04-28 20:58 49.54963 -47.71184 31432 ft 479 kts 66°
2026-04-28 20:59 49.57162 -47.61505 31427 ft 479 kts 66°
2026-04-28 20:59 49.59353 -47.51816 31429 ft 478 kts 66°
2026-04-28 21:00 49.61519 -47.42193 31445 ft 478 kts 66°
2026-04-28 21:00 49.63693 -47.32493 31430 ft 479 kts 66°
2026-04-28 21:01 49.65862 -47.22772 31427 ft 479 kts 66°
2026-04-28 21:01 49.68023 -47.13040 31426 ft 479 kts 66°
2026-04-28 21:02 49.70162 -47.03361 31425 ft 479 kts 66°
2026-04-28 21:02 49.72308 -46.93605 31434 ft 480 kts 66°
2026-04-28 21:03 49.74448 -46.83830 31421 ft 480 kts 66°
2026-04-28 21:03 49.76581 -46.74041 31419 ft 480 kts 66°
2026-04-28 21:04 49.78691 -46.64313 31419 ft 480 kts 66°
2026-04-28 21:04 49.80807 -46.54507 31441 ft 480 kts 66°
2026-04-28 21:05 49.82917 -46.44687 31422 ft 481 kts 66°
2026-04-28 21:05 49.85020 -46.34850 31415 ft 481 kts 66°
2026-04-28 21:06 49.87101 -46.25069 31416 ft 481 kts 66°
2026-04-28 21:06 49.89187 -46.15216 31411 ft 481 kts 67°
2026-04-28 21:07 49.91265 -46.05351 31415 ft 481 kts 67°
2026-04-28 21:07 49.93335 -45.95480 31413 ft 481 kts 67°
2026-04-28 21:08 49.95397 -45.85596 31413 ft 481 kts 67°
2026-04-28 21:08 49.97438 -45.75768 31408 ft 481 kts 67°
2026-04-28 21:09 49.99483 -45.65867 31411 ft 481 kts 67°
2026-04-28 21:09 50.01521 -45.55953 31402 ft 482 kts 67°
2026-04-28 21:10 50.03551 -45.46031 31408 ft 481 kts 67°
2026-04-28 21:10 50.05572 -45.36098 31408 ft 481 kts 67°
2026-04-28 21:11 50.07571 -45.26223 31405 ft 482 kts 67°
2026-04-28 21:11 50.09576 -45.16276 31425 ft 482 kts 67°
2026-04-28 21:12 50.11574 -45.06306 31410 ft 482 kts 67°
2026-04-28 21:12 50.13564 -44.96328 31404 ft 482 kts 67°
2026-04-28 21:13 50.15532 -44.86408 31401 ft 482 kts 68°
2026-04-28 21:13 50.17505 -44.76413 31402 ft 482 kts 68°
2026-04-28 21:14 50.19470 -44.66405 31405 ft 483 kts 68°
2026-04-28 21:14 50.21429 -44.56381 31399 ft 483 kts 68°
2026-04-28 21:15 50.23365 -44.46417 31397 ft 482 kts 68°
2026-04-28 21:15 50.25302 -44.36395 31395 ft 482 kts 68°
2026-04-28 21:16 50.27228 -44.26375 31391 ft 481 kts 68°
2026-04-28 21:16 50.29146 -44.16354 31394 ft 481 kts 68°
2026-04-28 21:17 50.31042 -44.06391 31390 ft 481 kts 68°
2026-04-28 21:17 50.32940 -43.96359 31391 ft 481 kts 68°
2026-04-28 21:18 50.34830 -43.86321 31388 ft 481 kts 68°
2026-04-28 21:18 50.36712 -43.76271 31402 ft 481 kts 68°
2026-04-28 21:19 50.38574 -43.66273 31392 ft 482 kts 68°
2026-04-28 21:19 50.40445 -43.56172 31385 ft 482 kts 68°
2026-04-28 21:20 50.42305 -43.46072 31386 ft 482 kts 68°
2026-04-28 21:20 50.44157 -43.35967 31369 ft 482 kts 68°
2026-04-28 21:21 50.45987 -43.25920 31388 ft 482 kts 68°
2026-04-28 21:21 50.47820 -43.15807 31379 ft 482 kts 69°
2026-04-28 21:22 50.49644 -43.05681 31378 ft 482 kts 69°
2026-04-28 21:22 50.51155 -42.97255 31379 ft 482 kts 69°
2026-04-28 21:23 50.53266 -42.85413 31375 ft 482 kts 69°
2026-04-28 21:23 50.55056 -42.75312 31384 ft 483 kts 69°
2026-04-28 21:24 50.56850 -42.65127 31379 ft 483 kts 69°
2026-04-28 21:24 50.58635 -42.54937 31374 ft 483 kts 69°
2026-04-28 21:25 50.60398 -42.44813 31374 ft 483 kts 69°
2026-04-28 21:25 50.62165 -42.34610 31389 ft 483 kts 69°
2026-04-28 21:26 50.63925 -42.24389 31373 ft 484 kts 69°
2026-04-28 21:26 50.65678 -42.14146 31369 ft 484 kts 69°
2026-04-28 21:27 50.67411 -42.03964 31367 ft 484 kts 70°
2026-04-28 21:27 50.69146 -41.93704 31367 ft 484 kts 70°
2026-04-28 21:28 50.70874 -41.83428 31371 ft 485 kts 70°
2026-04-28 21:28 50.72597 -41.73121 31368 ft 486 kts 70°
2026-04-28 21:29 50.74300 -41.62872 31361 ft 486 kts 70°
2026-04-28 21:29 50.76007 -41.52536 31362 ft 486 kts 70°
2026-04-28 21:30 50.77704 -41.42195 31361 ft 487 kts 70°
2026-04-28 21:30 50.79393 -41.31842 31359 ft 487 kts 70°
2026-04-28 21:31 50.81074 -41.21479 31356 ft 487 kts 70°
2026-04-28 21:31 50.82735 -41.11174 31355 ft 487 kts 71°
2026-04-28 21:32 50.84400 -41.00774 31358 ft 488 kts 71°
2026-04-28 21:32 50.86059 -40.90350 31364 ft 489 kts 71°
2026-04-28 21:33 50.87713 -40.79894 31358 ft 490 kts 72°
2026-04-28 21:33 50.89350 -40.69474 31354 ft 491 kts 72°
2026-04-28 21:34 50.90991 -40.58964 31351 ft 492 kts 72°
2026-04-28 21:34 50.92622 -40.48447 31347 ft 492 kts 72°
2026-04-28 21:35 50.94245 -40.37915 31358 ft 492 kts 72°
2026-04-28 21:35 50.95849 -40.27437 31345 ft 492 kts 72°
2026-04-28 21:36 50.97456 -40.16874 31344 ft 493 kts 72°
2026-04-28 21:36 50.99053 -40.06308 31343 ft 493 kts 72°
2026-04-28 21:37 51.00637 -39.95717 31353 ft 493 kts 73°
2026-04-28 21:37 51.02166 -39.85149 31346 ft 495 kts 74°
2026-04-28 21:38 51.03691 -39.74464 31341 ft 497 kts 75°
2026-04-28 21:38 51.05215 -39.63745 31343 ft 497 kts 75°
2026-04-28 21:39 51.06733 -39.53014 31342 ft 498 kts 75°
2026-04-28 21:39 51.08244 -39.42273 31344 ft 498 kts 75°
2026-04-28 21:40 51.09734 -39.31596 31335 ft 498 kts 75°
2026-04-28 21:40 51.11224 -39.20844 31335 ft 497 kts 75°
2026-04-28 21:41 51.12703 -39.10093 31334 ft 497 kts 75°
2026-04-28 21:41 51.14172 -38.99336 31332 ft 497 kts 75°
2026-04-28 21:42 51.15623 -38.88641 31312 ft 498 kts 77°
2026-04-28 21:42 51.17075 -38.77848 31337 ft 499 kts 77°
2026-04-28 21:43 51.18522 -38.67011 31327 ft 501 kts 77°
2026-04-28 21:43 51.19965 -38.56125 31323 ft 502 kts 77°
2026-04-28 21:44 51.21391 -38.45293 31326 ft 503 kts 77°
2026-04-28 21:44 51.22818 -38.34362 31316 ft 504 kts 78°
2026-04-28 21:45 51.24236 -38.23411 31320 ft 504 kts 78°
2026-04-28 21:45 51.25644 -38.12451 31315 ft 504 kts 78°
2026-04-28 21:46 51.27032 -38.01566 31317 ft 504 kts 78°
2026-04-28 21:46 51.28419 -37.90603 31312 ft 504 kts 79°
2026-04-28 21:47 51.29795 -37.79635 31311 ft 503 kts 79°
2026-04-28 21:47 51.31161 -37.68666 31298 ft 503 kts 79°
2026-04-28 21:48 51.32514 -37.57702 31312 ft 503 kts 79°
2026-04-28 21:48 51.33849 -37.46804 31308 ft 503 kts 79°
2026-04-28 21:49 51.35182 -37.35832 31295 ft 502 kts 80°
2026-04-28 21:49 51.36503 -37.24858 31291 ft 502 kts 80°
2026-04-28 21:50 51.37813 -37.13895 31292 ft 502 kts 80°
2026-04-28 21:50 51.39104 -37.03001 31291 ft 501 kts 80°
2026-04-28 21:51 51.40393 -36.92027 31293 ft 501 kts 81°
2026-04-28 21:51 51.41672 -36.81049 31282 ft 501 kts 81°
2026-04-28 21:52 51.42939 -36.70073 31283 ft 501 kts 81°
2026-04-28 21:52 51.44187 -36.59165 31286 ft 501 kts 81°
2026-04-28 21:53 51.45433 -36.48194 31267 ft 500 kts 81°
2026-04-28 21:53 51.46667 -36.37218 31273 ft 500 kts 82°
2026-04-28 21:54 51.47890 -36.26243 31273 ft 500 kts 82°
2026-04-28 21:54 51.49096 -36.15330 31276 ft 500 kts 82°
2026-04-28 21:55 51.50300 -36.04342 31271 ft 500 kts 82°
2026-04-28 21:55 51.51493 -35.93347 31263 ft 500 kts 82°
2026-04-28 21:56 51.52677 -35.82343 31264 ft 500 kts 83°
2026-04-28 21:56 51.53841 -35.71412 31264 ft 500 kts 83°
2026-04-28 21:57 51.55003 -35.60402 31262 ft 500 kts 83°
2026-04-28 21:57 51.56154 -35.49393 31258 ft 500 kts 83°
2026-04-28 21:58 51.57296 -35.38376 31232 ft 499 kts 84°
2026-04-28 21:58 51.58417 -35.27449 31248 ft 498 kts 84°
2026-04-28 21:59 51.59532 -35.16468 31250 ft 497 kts 84°
2026-04-28 22:00 51.61184 -35.00011 31247 ft 497 kts 84°
2026-04-28 22:00 51.62273 -34.89035 31238 ft 497 kts 84°
2026-04-28 22:01 51.63343 -34.78138 31249 ft 496 kts 84°
2026-04-28 22:01 51.64408 -34.67173 31236 ft 496 kts 84°
2026-04-28 22:02 51.65464 -34.56201 31237 ft 496 kts 85°
2026-04-28 22:02 51.66509 -34.45237 31234 ft 495 kts 85°
2026-04-28 22:03 51.67536 -34.34337 31237 ft 495 kts 85°
2026-04-28 22:03 51.68560 -34.23368 31234 ft 495 kts 85°
2026-04-28 22:04 51.69571 -34.12419 31221 ft 493 kts 85°
2026-04-28 22:04 51.70569 -34.01497 31225 ft 492 kts 85°
2026-04-28 22:05 51.71548 -33.90667 31225 ft 491 kts 85°
2026-04-28 22:05 51.72523 -33.79769 31222 ft 491 kts 85°
2026-04-28 22:06 51.73487 -33.68875 31222 ft 491 kts 85°
2026-04-28 22:06 51.74441 -33.57973 31218 ft 491 kts 85°
2026-04-28 22:07 51.75386 -33.47057 31215 ft 491 kts 86°
2026-04-28 22:07 51.76290 -33.36490 31212 ft 491 kts 86°
2026-04-28 22:08 51.77217 -33.25544 31202 ft 493 kts 87°
2026-04-28 22:08 51.78135 -33.14562 31206 ft 494 kts 87°
2026-04-28 22:09 51.79047 -33.03544 31203 ft 496 kts 87°
2026-04-28 22:09 51.79945 -32.92574 31204 ft 496 kts 89°
2026-04-28 22:10 51.80840 -32.81499 31184 ft 498 kts 90°
2026-04-28 22:10 51.81725 -32.70402 31194 ft 499 kts 90°
2026-04-28 22:11 51.82603 -32.59258 31194 ft 501 kts 90°
2026-04-28 22:11 51.83470 -32.48129 31191 ft 502 kts 90°
2026-04-28 22:12 51.84332 -32.36937 31187 ft 502 kts 90°
2026-04-28 22:12 51.85183 -32.25748 31177 ft 501 kts 91°
2026-04-28 22:13 51.86020 -32.14566 31178 ft 501 kts 92°
2026-04-28 22:13 51.86847 -32.03373 31177 ft 501 kts 92°
2026-04-28 22:14 51.87659 -31.92251 31172 ft 501 kts 92°
2026-04-28 22:14 51.88467 -31.81047 31177 ft 501 kts 92°
2026-04-28 22:15 51.89263 -31.69860 31171 ft 499 kts 93°
2026-04-28 22:15 51.90046 -31.58691 31154 ft 499 kts 93°
2026-04-28 22:16 51.90811 -31.47599 31165 ft 499 kts 93°
2026-04-28 22:16 51.91572 -31.36435 31159 ft 499 kts 93°
2026-04-28 22:17 51.92322 -31.25267 31154 ft 498 kts 93°
2026-04-28 22:17 51.93062 -31.14105 31157 ft 498 kts 93°
2026-04-28 22:18 51.93785 -31.03014 31167 ft 498 kts 94°
2026-04-28 22:18 51.94503 -30.91850 31161 ft 498 kts 94°
2026-04-28 22:19 51.95210 -30.80680 31156 ft 498 kts 94°
2026-04-28 22:19 51.95907 -30.69508 31133 ft 498 kts 94°
2026-04-28 22:20 51.96588 -30.58419 31149 ft 498 kts 94°
2026-04-28 22:20 51.97263 -30.47230 31148 ft 499 kts 94°
2026-04-28 22:21 51.97929 -30.36031 31146 ft 499 kts 94°
2026-04-28 22:21 51.98585 -30.24831 31139 ft 499 kts 94°
2026-04-28 22:22 51.99231 -30.13619 31132 ft 499 kts 95°
2026-04-28 22:22 51.99867 -30.02490 31137 ft 500 kts 94°
2026-04-28 22:23 52.01149 -29.91255 31138 ft 511 kts 86°
2026-04-28 22:23 52.02820 -29.80039 31135 ft 512 kts 86°
2026-04-28 22:24 52.04476 -29.68806 31099 ft 511 kts 86°
2026-04-28 22:24 52.06075 -29.57641 31121 ft 511 kts 86°
2026-04-28 22:25 52.07657 -29.46383 31121 ft 511 kts 87°
2026-04-28 22:25 52.09227 -29.35115 31120 ft 511 kts 87°
2026-04-28 22:26 52.10790 -29.23833 31115 ft 511 kts 87°
2026-04-28 22:26 52.12331 -29.12630 31108 ft 511 kts 87°
2026-04-28 22:27 52.13873 -29.01341 31117 ft 511 kts 87°
2026-04-28 22:27 52.15405 -28.90041 31117 ft 510 kts 87°
2026-04-28 22:28 52.16667 -28.80667 31102 ft 510 kts 87°
2026-04-28 22:28 52.18172 -28.69407 31100 ft 508 kts 86°
2026-04-28 22:29 52.19904 -28.56332 31107 ft 508 kts 87°
2026-04-28 22:29 52.21381 -28.45078 31114 ft 507 kts 87°
2026-04-28 22:30 52.22601 -28.35724 31109 ft 507 kts 87°
2026-04-28 22:30 52.24057 -28.24467 31096 ft 507 kts 87°
2026-04-28 22:31 52.25740 -28.11351 31109 ft 508 kts 87°
2026-04-28 22:31 52.26943 -28.01904 31112 ft 508 kts 87°
2026-04-28 22:32 52.28364 -27.90653 31115 ft 509 kts 87°
2026-04-28 22:32 52.29783 -27.79329 31116 ft 509 kts 87°
2026-04-28 22:33 52.31420 -27.66158 31102 ft 509 kts 86°
2026-04-28 22:33 52.32590 -27.56659 31114 ft 509 kts 86°
2026-04-28 22:34 52.33966 -27.45392 31123 ft 509 kts 87°
2026-04-28 22:34 52.35342 -27.34037 31121 ft 509 kts 87°
2026-04-28 22:35 52.36708 -27.22666 31114 ft 509 kts 86°
2026-04-28 22:35 52.38063 -27.11290 31125 ft 510 kts 87°
2026-04-28 22:36 52.39400 -26.99968 31125 ft 510 kts 87°
2026-04-28 22:36 52.40737 -26.88547 31101 ft 511 kts 87°
2026-04-28 22:37 52.42062 -26.77134 31099 ft 509 kts 86°
2026-04-28 22:37 52.43372 -26.65754 31126 ft 507 kts 86°
2026-04-28 22:38 52.44657 -26.54482 31131 ft 506 kts 86°
2026-04-28 22:38 52.45936 -26.43151 31136 ft 505 kts 87°
2026-04-28 22:39 52.47202 -26.31827 31140 ft 505 kts 87°
2026-04-28 22:39 52.48458 -26.20499 31138 ft 505 kts 87°
2026-04-28 22:40 52.49696 -26.09236 31144 ft 505 kts 87°
2026-04-28 22:40 52.50931 -25.97888 31142 ft 505 kts 87°
2026-04-28 22:41 52.52157 -25.86524 31146 ft 505 kts 87°
2026-04-28 22:41 52.53371 -25.75153 31124 ft 506 kts 87°
2026-04-28 22:42 52.54568 -25.63848 31149 ft 506 kts 87°
2026-04-28 22:42 52.55763 -25.52446 31154 ft 507 kts 87°
2026-04-28 22:43 52.56949 -25.41018 31150 ft 507 kts 87°
2026-04-28 22:43 52.58124 -25.29582 31158 ft 507 kts 87°
2026-04-28 22:44 52.59289 -25.18134 31150 ft 508 kts 87°
2026-04-28 22:44 52.60436 -25.06757 31166 ft 508 kts 87°
2026-04-28 22:45 52.61580 -24.95281 31168 ft 508 kts 87°
2026-04-28 22:45 52.62714 -24.83796 31163 ft 509 kts 87°
2026-04-28 22:46 52.63836 -24.72309 31149 ft 507 kts 86°
2026-04-28 22:46 52.64937 -24.60931 31175 ft 506 kts 86°
2026-04-28 22:47 52.66032 -24.49490 31186 ft 505 kts 87°
2026-04-28 22:47 52.67113 -24.38062 31183 ft 505 kts 87°
2026-04-28 22:48 52.68184 -24.26623 31162 ft 505 kts 87°
2026-04-28 22:48 52.69235 -24.15283 31186 ft 504 kts 87°
2026-04-28 22:49 52.70281 -24.03872 31196 ft 503 kts 87°
2026-04-28 22:49 52.71315 -23.92461 31208 ft 503 kts 87°
2026-04-28 22:50 52.72338 -23.81050 31205 ft 503 kts 87°
2026-04-28 22:50 52.73349 -23.69637 31200 ft 503 kts 87°
2026-04-28 22:51 52.74343 -23.58304 31208 ft 502 kts 87°
2026-04-28 22:51 52.75332 -23.46889 31214 ft 503 kts 87°
2026-04-28 22:52 52.76310 -23.35461 31222 ft 503 kts 87°
2026-04-28 22:52 52.77278 -23.24031 31196 ft 503 kts 87°
2026-04-28 22:53 52.78228 -23.12663 31226 ft 503 kts 87°
2026-04-28 22:53 52.79176 -23.01199 31229 ft 504 kts 87°
2026-04-28 22:54 52.80114 -22.89706 31235 ft 505 kts 87°
2026-04-28 22:54 52.81043 -22.78191 31234 ft 505 kts 87°
2026-04-28 22:55 52.81955 -22.66754 31246 ft 505 kts 87°
2026-04-28 22:55 52.82860 -22.55243 31240 ft 505 kts 86°
2026-04-28 22:56 52.83754 -22.43739 31248 ft 504 kts 87°
2026-04-28 22:56 52.84635 -22.32249 31260 ft 504 kts 87°
2026-04-28 22:57 52.85498 -22.20835 31244 ft 503 kts 86°
2026-04-28 22:57 52.86356 -22.09341 31269 ft 503 kts 86°
2026-04-28 22:58 52.87204 -21.97839 31267 ft 504 kts 87°
2026-04-28 22:58 52.88041 -21.86324 31276 ft 504 kts 87°
2026-04-28 22:59 52.88862 -21.74874 31276 ft 504 kts 87°
2026-04-28 22:59 52.89677 -21.63347 31277 ft 504 kts 86°
2026-04-28 23:00 52.90480 -21.51834 31279 ft 503 kts 87°
2026-04-28 23:00 52.91271 -21.40329 31287 ft 502 kts 87°
2026-04-28 23:01 52.92050 -21.28827 31298 ft 502 kts 87°
2026-04-28 23:01 52.92811 -21.17409 31293 ft 502 kts 87°
2026-04-28 23:02 52.93568 -21.05911 31295 ft 502 kts 87°
2026-04-28 23:02 52.94312 -20.94416 31295 ft 502 kts 87°
2026-04-28 23:03 52.95041 -20.82990 31290 ft 501 kts 87°
2026-04-28 23:03 52.95763 -20.71487 31291 ft 501 kts 88°
2026-04-28 23:04 52.96474 -20.59990 31298 ft 501 kts 87°
2026-04-28 23:04 52.97518 -20.42771 31298 ft 499 kts 87°
2026-04-28 23:05 52.98193 -20.31396 31306 ft 498 kts 87°
2026-04-28 23:05 52.98861 -20.19962 31309 ft 497 kts 87°
2026-04-28 23:06 52.99517 -20.08545 31304 ft 497 kts 87°
2026-04-28 23:06 53.00104 -19.97133 31318 ft 495 kts 90°
2026-04-28 23:07 53.00353 -19.85709 31323 ft 495 kts 91°
2026-04-28 23:07 53.00531 -19.74356 31322 ft 496 kts 91°
2026-04-28 23:08 53.00718 -19.62912 31317 ft 496 kts 91°
2026-04-28 23:08 53.00913 -19.51457 31326 ft 496 kts 91°
2026-04-28 23:09 53.01103 -19.39996 31329 ft 497 kts 91°
2026-04-28 23:09 53.01281 -19.28606 31329 ft 497 kts 91°
2026-04-28 23:10 53.01448 -19.17131 31334 ft 497 kts 91°
2026-04-28 23:10 53.01603 -19.05657 31328 ft 497 kts 91°
2026-04-28 23:11 53.01748 -18.94197 31337 ft 496 kts 91°
2026-04-28 23:11 53.01881 -18.82745 31336 ft 496 kts 91°
2026-04-28 23:12 53.02002 -18.71380 31342 ft 495 kts 91°
2026-04-28 23:12 53.02113 -18.59947 31340 ft 494 kts 91°
2026-04-28 23:13 53.02212 -18.48543 31343 ft 493 kts 91°
2026-04-28 23:13 53.02301 -18.37165 31343 ft 492 kts 91°
2026-04-28 23:14 53.02379 -18.25798 31347 ft 492 kts 91°
2026-04-28 23:14 53.02445 -18.14518 31346 ft 492 kts 91°
2026-04-28 23:15 53.02501 -18.03160 31336 ft 492 kts 91°
2026-04-28 23:15 53.02546 -17.91812 31358 ft 491 kts 91°
2026-04-28 23:16 53.02580 -17.80461 31348 ft 491 kts 91°
2026-04-28 23:16 53.02604 -17.69194 31348 ft 491 kts 91°
2026-04-28 23:17 53.02617 -17.57853 31347 ft 491 kts 91°
2026-04-28 23:17 53.02619 -17.46509 31357 ft 491 kts 91°
2026-04-28 23:18 53.02610 -17.35264 31340 ft 490 kts 91°
2026-04-28 23:18 53.02591 -17.23959 31354 ft 489 kts 91°
2026-04-28 23:19 53.02561 -17.12666 31350 ft 489 kts 91°
2026-04-28 23:19 53.02520 -17.01382 31351 ft 488 kts 91°
2026-04-28 23:20 53.02469 -16.90188 31363 ft 487 kts 91°
2026-04-28 23:20 53.02407 -16.78943 31351 ft 486 kts 91°
2026-04-28 23:21 53.02335 -16.67712 31356 ft 486 kts 91°
2026-04-28 23:21 53.02253 -16.56494 31368 ft 485 kts 91°
2026-04-28 23:22 53.02160 -16.45360 31354 ft 485 kts 91°
2026-04-28 23:22 53.02056 -16.34156 31359 ft 485 kts 91°
2026-04-28 23:23 53.01943 -16.22973 31357 ft 484 kts 91°
2026-04-28 23:23 53.01818 -16.11800 31368 ft 484 kts 91°
2026-04-28 23:24 53.01685 -16.00708 31369 ft 483 kts 91°
2026-04-28 23:24 53.01540 -15.89551 31358 ft 483 kts 91°
2026-04-28 23:25 53.01384 -15.78396 31360 ft 483 kts 91°
2026-04-28 23:25 53.01219 -15.67238 31360 ft 483 kts 91°
2026-04-28 23:26 53.01042 -15.56079 31376 ft 483 kts 91°
2026-04-28 23:26 53.00857 -15.44997 31378 ft 483 kts 91°
2026-04-28 23:27 53.00660 -15.33850 31376 ft 482 kts 91°
2026-04-28 23:27 53.00454 -15.22756 31366 ft 479 kts 91°
2026-04-28 23:28 53.00239 -15.11729 31367 ft 477 kts 91°
2026-04-28 23:28 53.00018 -15.00822 31369 ft 475 kts 91°
2026-04-28 23:29 52.99945 -14.89790 31386 ft 482 kts 89°
2026-04-28 23:29 53.00031 -14.78661 31368 ft 481 kts 89°
2026-04-28 23:30 53.00089 -14.67576 31375 ft 480 kts 89°
2026-04-28 23:30 53.00105 -14.56593 31376 ft 478 kts 90°
2026-04-28 23:31 53.00104 -14.45553 31377 ft 478 kts 90°
2026-04-28 23:31 53.00093 -14.34517 31380 ft 478 kts 90°
2026-04-28 23:32 53.00074 -14.23482 31378 ft 478 kts 90°
2026-04-28 23:32 53.00046 -14.12522 31377 ft 478 kts 90°
2026-04-28 23:33 53.00015 -14.01500 31380 ft 477 kts 89°
2026-04-28 23:33 53.00573 -13.90533 31380 ft 477 kts 83°
2026-04-28 23:34 53.01356 -13.79603 31385 ft 477 kts 83°
2026-04-28 23:34 53.02108 -13.68738 31384 ft 477 kts 83°
2026-04-28 23:35 53.02835 -13.57803 31382 ft 476 kts 83°
2026-04-28 23:35 53.03544 -13.46870 31383 ft 476 kts 83°
2026-04-28 23:36 53.04241 -13.35938 31381 ft 476 kts 83°
2026-04-28 23:36 53.04929 -13.25008 31389 ft 475 kts 83°
2026-04-28 23:37 53.05603 -13.14152 31384 ft 475 kts 83°
2026-04-28 23:37 53.06272 -13.03226 31386 ft 475 kts 84°
2026-04-28 23:38 53.06930 -12.92302 31383 ft 475 kts 84°
2026-04-28 23:38 53.07577 -12.81376 31390 ft 475 kts 84°
2026-04-28 23:39 53.08210 -12.70530 31386 ft 474 kts 84°
2026-04-28 23:39 53.08836 -12.59636 31383 ft 472 kts 84°
2026-04-28 23:40 53.09450 -12.48770 31387 ft 471 kts 84°
2026-04-28 23:40 53.10053 -12.37915 31392 ft 471 kts 84°
2026-04-28 23:41 53.10646 -12.27064 31401 ft 470 kts 84°
2026-04-28 23:41 53.11224 -12.16317 31389 ft 469 kts 84°
2026-04-28 23:42 53.11793 -12.05537 31382 ft 466 kts 84°
2026-04-28 23:42 53.12350 -11.94801 31385 ft 465 kts 84°
2026-04-28 23:43 53.12897 -11.84079 31386 ft 464 kts 84°
2026-04-28 23:43 53.13430 -11.73439 31392 ft 464 kts 84°
2026-04-28 23:44 53.13956 -11.62738 31386 ft 463 kts 84°
2026-04-28 23:44 53.14472 -11.52044 31388 ft 463 kts 84°
2026-04-28 23:45 53.14979 -11.41349 31387 ft 463 kts 84°
2026-04-28 23:45 53.15472 -11.30725 31388 ft 463 kts 84°
2026-04-28 23:46 53.15959 -11.20035 31398 ft 462 kts 84°
2026-04-28 23:46 53.16436 -11.09363 31388 ft 461 kts 84°
2026-04-28 23:47 53.16901 -10.98721 31393 ft 460 kts 84°
2026-04-28 23:47 53.17354 -10.88161 31394 ft 460 kts 84°
2026-04-28 23:48 53.17800 -10.77535 31399 ft 459 kts 84°
2026-04-28 23:48 53.18236 -10.66911 31399 ft 460 kts 84°
2026-04-28 23:49 53.18663 -10.56280 31400 ft 460 kts 84°
2026-04-28 23:49 53.19078 -10.45707 31399 ft 460 kts 84°
2026-04-28 23:50 53.19487 -10.35055 31399 ft 461 kts 84°
2026-04-28 23:50 53.19886 -10.24389 31412 ft 461 kts 84°
2026-04-28 23:51 53.20276 -10.13740 31401 ft 460 kts 84°
2026-04-28 23:51 53.20655 -10.03109 31403 ft 459 kts 84°
2026-04-28 23:52 53.21021 -9.92571 31404 ft 458 kts 85°
2026-04-28 23:52 53.21380 -9.81973 31407 ft 457 kts 85°
2026-04-28 23:53 53.21730 -9.71381 31417 ft 457 kts 85°
2026-04-28 23:53 53.22069 -9.60807 31402 ft 456 kts 85°
2026-04-28 23:54 53.22399 -9.50258 31403 ft 455 kts 85°
2026-04-28 23:54 53.22716 -9.39797 31402 ft 454 kts 85°
2026-04-28 23:55 53.23026 -9.29265 31402 ft 454 kts 85°
2026-04-28 23:55 53.23327 -9.18737 31407 ft 454 kts 85°
2026-04-28 23:56 53.23618 -9.08219 31398 ft 453 kts 85°
2026-04-28 23:56 53.23898 -8.97792 31393 ft 452 kts 85°
2026-04-28 23:57 53.24169 -8.87306 31392 ft 452 kts 85°
2026-04-28 23:57 53.24432 -8.76828 31393 ft 452 kts 85°
2026-04-28 23:58 53.24685 -8.66351 31397 ft 451 kts 85°
2026-04-28 23:58 53.24927 -8.55975 31391 ft 450 kts 85°
2026-04-28 23:59 53.25160 -8.45556 31392 ft 448 kts 85°
2026-04-28 23:59 53.25383 -8.35162 31391 ft 448 kts 85°
2026-04-29 00:00 53.25599 -8.24771 31392 ft 448 kts 85°
2026-04-29 00:00 53.25805 -8.14385 31402 ft 447 kts 85°
2026-04-29 00:01 53.26000 -8.04074 31393 ft 447 kts 85°
2026-04-29 00:01 53.26187 -7.93711 31389 ft 446 kts 85°
2026-04-29 00:02 53.26365 -7.83352 31391 ft 446 kts 85°
2026-04-29 00:02 53.26534 -7.73000 31395 ft 446 kts 86°
2026-04-29 00:03 53.26693 -7.62717 31404 ft 446 kts 86°
2026-04-29 00:03 53.26844 -7.52378 31389 ft 445 kts 86°
2026-04-29 00:04 53.26986 -7.42051 31391 ft 444 kts 86°
2026-04-29 00:04 53.27118 -7.31735 31394 ft 444 kts 86°
2026-04-29 00:05 53.27242 -7.21493 31394 ft 444 kts 86°
2026-04-29 00:05 53.27357 -7.11184 31399 ft 443 kts 86°
2026-04-29 00:06 53.27462 -7.00902 31388 ft 442 kts 86°
2026-04-29 00:06 53.27559 -6.90655 31389 ft 440 kts 86°
2026-04-29 00:07 53.27646 -6.80501 31399 ft 440 kts 86°
2026-04-29 00:07 53.27725 -6.70285 31388 ft 440 kts 86°
2026-04-29 00:08 53.27795 -6.60066 31393 ft 440 kts 86°
2026-04-29 00:08 53.27857 -6.49860 31407 ft 439 kts 87°
2026-04-29 00:09 53.27909 -6.39731 31399 ft 439 kts 87°
2026-04-29 00:09 53.27953 -6.29538 31396 ft 439 kts 87°
2026-04-29 00:10 53.27988 -6.19341 31398 ft 439 kts 87°
2026-04-29 00:10 53.28015 -6.09152 31404 ft 438 kts 87°
2026-04-29 00:11 53.28033 -5.99038 31403 ft 438 kts 87°
2026-04-29 00:12 53.28044 -5.83776 31397 ft 438 kts 87°
2026-04-29 00:12 53.28040 -5.73607 31406 ft 438 kts 87°
2026-04-29 00:13 53.28028 -5.63436 31401 ft 438 kts 88°
2026-04-29 00:13 53.28009 -5.53332 31413 ft 438 kts 88°
2026-04-29 00:14 53.27883 -5.43163 31405 ft 439 kts 90°
2026-04-29 00:14 53.27548 -5.32971 31407 ft 439 kts 90°
2026-04-29 00:15 53.27239 -5.22776 31408 ft 439 kts 90°
2026-04-29 00:15 53.26937 -5.12656 31429 ft 439 kts 90°
2026-04-29 00:16 53.26596 -5.02479 31412 ft 438 kts 90°
2026-04-29 00:16 53.26248 -4.92334 31410 ft 437 kts 90°
2026-04-29 00:17 53.25898 -4.82213 31412 ft 436 kts 90°
2026-04-29 00:17 53.25543 -4.72183 31404 ft 436 kts 90°
2026-04-29 00:18 53.25201 -4.62086 31403 ft 435 kts 90°
2026-04-29 00:18 53.24859 -4.52000 31409 ft 435 kts 90°
2026-04-29 00:19 53.24508 -4.41926 31400 ft 434 kts 90°
2026-04-29 00:19 53.24147 -4.31880 31403 ft 433 kts 90°
2026-04-29 00:20 53.23780 -4.21912 31402 ft 433 kts 90°
2026-04-29 00:20 53.23404 -4.11886 31402 ft 433 kts 90°
2026-04-29 00:21 53.23020 -4.01859 31411 ft 433 kts 91°
2026-04-29 00:21 53.22618 -3.91807 31033 ft 439 kts 91°
2026-04-29 00:21 53.22410 -3.86768 30393 ft 441 kts 91°
2026-04-29 00:22 53.22195 -3.81694 29659 ft 436 kts 91°
2026-04-29 00:22 53.21982 -3.76686 29018 ft 429 kts 91°
2026-04-29 00:22 53.21772 -3.71761 28415 ft 423 kts 91°
2026-04-29 00:22 53.21563 -3.66898 27810 ft 418 kts 91°
2026-04-29 00:23 53.21355 -3.62091 27258 ft 413 kts 92°
2026-04-29 00:23 53.21146 -3.57370 26861 ft 404 kts 92°
2026-04-29 00:23 53.20938 -3.52717 26464 ft 400 kts 92°
2026-04-29 00:23 53.20733 -3.48145 26089 ft 403 kts 92°
2026-04-29 00:24 53.20523 -3.43462 25690 ft 406 kts 92°
2026-04-29 00:24 53.20310 -3.38760 25308 ft 407 kts 92°
2026-04-29 00:24 53.20095 -3.34065 24890 ft 405 kts 92°
2026-04-29 00:24 53.19880 -3.29405 24487 ft 402 kts 92°
2026-04-29 00:25 53.19662 -3.24767 24099 ft 400 kts 92°
2026-04-29 00:25 53.19302 -3.20201 23633 ft 398 kts 102°
2026-04-29 00:25 53.18274 -3.15914 23202 ft 401 kts 116°
2026-04-29 00:25 53.16791 -3.12065 22815 ft 399 kts 119°
2026-04-29 00:26 53.15274 -3.08211 22410 ft 397 kts 118°
2026-04-29 00:26 53.13785 -3.04356 22016 ft 395 kts 118°
2026-04-29 00:26 53.12314 -3.00502 21632 ft 393 kts 118°
2026-04-29 00:26 53.10854 -2.96661 21243 ft 392 kts 118°
2026-04-29 00:27 53.09398 -2.92832 20842 ft 391 kts 118°
2026-04-29 00:27 53.08025 -2.88971 20424 ft 383 kts 111°
2026-04-29 00:27 53.07291 -2.84792 20169 ft 371 kts 96°
2026-04-29 00:27 53.06996 -2.80590 19928 ft 373 kts 94°
2026-04-29 00:28 53.06686 -2.76293 19651 ft 376 kts 95°
2026-04-29 00:28 53.06356 -2.71980 19383 ft 376 kts 95°
2026-04-29 00:28 53.06017 -2.67672 19129 ft 376 kts 95°
2026-04-29 00:28 53.05672 -2.63369 18857 ft 375 kts 95°
2026-04-29 00:29 53.05325 -2.59080 18573 ft 374 kts 95°
2026-04-29 00:29 53.04976 -2.54799 18273 ft 373 kts 95°
2026-04-29 00:29 53.04627 -2.50543 17984 ft 371 kts 96°
2026-04-29 00:29 53.04283 -2.46360 17745 ft 369 kts 96°
2026-04-29 00:30 53.03936 -2.42140 17472 ft 368 kts 96°
2026-04-29 00:30 53.03701 -2.39302 17288 ft 367 kts 96°
2026-04-29 00:30 53.03239 -2.33762 16942 ft 365 kts 96°
2026-04-29 00:30 53.02934 -2.29589 16686 ft 362 kts 91°
2026-04-29 00:31 53.02968 -2.25426 16432 ft 360 kts 85°
2026-04-29 00:31 53.03181 -2.21293 16200 ft 357 kts 84°
2026-04-29 00:31 53.03412 -2.17235 15930 ft 349 kts 84°
2026-04-29 00:31 53.03617 -2.13275 15674 ft 340 kts 84°
2026-04-29 00:32 53.03744 -2.09484 15452 ft 324 kts 91°
2026-04-29 00:32 53.03324 -2.05970 15263 ft 299 kts 107°
2026-04-29 00:32 53.02549 -2.02898 14926 ft 280 kts 113°
2026-04-29 00:32 53.01591 -2.00128 14297 ft 275 kts 121°
2026-04-29 00:33 53.00491 -1.97554 13530 ft 272 kts 123°
2026-04-29 00:33 52.99369 -1.95037 12637 ft 272 kts 123°
2026-04-29 00:33 52.98243 -1.92517 11822 ft 271 kts 123°
2026-04-29 00:33 52.97123 -1.90001 10997 ft 271 kts 123°
2026-04-29 00:34 52.96009 -1.87490 10195 ft 269 kts 123°
2026-04-29 00:34 52.94924 -1.85036 9410 ft 265 kts 123°
2026-04-29 00:34 52.93843 -1.82588 8645 ft 261 kts 123°
2026-04-29 00:34 52.92781 -1.80180 7910 ft 257 kts 123°
2026-04-29 00:35 52.91733 -1.77803 7158 ft 254 kts 123°
2026-04-29 00:35 52.90698 -1.75454 6398 ft 250 kts 123°
2026-04-29 00:35 52.89676 -1.73137 5699 ft 248 kts 123°
2026-04-29 00:35 52.88672 -1.70863 5110 ft 242 kts 122°
2026-04-29 00:36 52.87694 -1.68649 4662 ft 231 kts 122°
2026-04-29 00:36 52.86790 -1.66609 4324 ft 215 kts 122°
2026-04-29 00:36 52.85938 -1.64687 4027 ft 199 kts 121°
2026-04-29 00:36 52.85148 -1.62908 3820 ft 187 kts 121°
2026-04-29 00:37 52.84391 -1.61201 3541 ft 181 kts 121°
2026-04-29 00:37 52.83666 -1.59568 3309 ft 170 kts 120°
2026-04-29 00:37 52.83004 -1.58027 3036 ft 157 kts 112°
2026-04-29 00:37 52.82710 -1.56372 2860 ft 150 kts 92°
2026-04-29 00:38 52.82701 -1.54616 2669 ft 154 kts 88°
2026-04-29 00:38 52.82728 -1.52905 2456 ft 144 kts 87°
2026-04-29 00:38 52.82756 -1.51326 2239 ft 133 kts 86°
2026-04-29 00:38 52.82783 -1.49851 2127 ft 127 kts 86°
2026-04-29 00:39 52.82812 -1.48371 2014 ft 131 kts 86°
2026-04-29 00:39 52.82838 -1.46853 1809 ft 133 kts 85°
2026-04-29 00:39 52.82857 -1.45336 1612 ft 130 kts 84°
2026-04-29 00:39 52.82889 -1.43832 1453 ft 132 kts 83°
2026-04-29 00:40 52.82924 -1.42290 1289 ft 137 kts 83°
2026-04-29 00:40 52.82960 -1.40693 1080 ft 141 kts 84°
2026-04-29 00:40 52.82984 -1.39051 852 ft 145 kts 84°
2026-04-29 00:40 52.83010 -1.37397 675 ft 147 kts 85°
2026-04-29 00:41 52.83046 -1.35678 473 ft 151 kts 86°
2026-04-29 00:41 52.83074 -1.34517 350 ft 154 kts 88°
2026-04-29 00:41 52.83104 -1.32402 308 ft 109 kts 88°
2026-04-29 00:41 52.83123 -1.31456 313 ft 56 kts 88°
2026-04-29 00:42 52.83132 -1.31039 309 ft 30 kts 88°
2026-04-29 00:42 52.83136 -1.30783 307 ft 13 kts 89°
2026-04-29 00:42 52.83089 -1.30688 309 ft 12 kts 167°
2026-04-29 00:42 52.83007 -1.30711 308 ft 12 kts 212°
2026-04-29 00:43 52.82968 -1.30832 307 ft 13 kts 264°
2026-04-29 00:43 52.82965 -1.30976 306 ft 13 kts 267°
2026-04-29 00:43 52.82962 -1.31120 308 ft 13 kts 270°
2026-04-29 00:43 52.82959 -1.31264 308 ft 13 kts 267°
2026-04-29 00:44 52.82956 -1.31408 307 ft 13 kts 269°
2026-04-29 00:44 52.82954 -1.31542 307 ft 11 kts 269°
2026-04-29 00:44 52.82951 -1.31670 305 ft 11 kts 268°
2026-04-29 00:44 52.82950 -1.31799 305 ft 11 kts 269°
2026-04-29 00:45 52.82946 -1.31928 309 ft 11 kts 268°
2026-04-29 00:45 52.82944 -1.32087 305 ft 21 kts 268°
2026-04-29 00:45 52.82939 -1.32350 305 ft 23 kts 268°
2026-04-29 00:45 52.82934 -1.32615 307 ft 23 kts 268°
2026-04-29 00:46 52.82930 -1.32851 309 ft 20 kts 268°
2026-04-29 00:46 52.82926 -1.33082 306 ft 20 kts 268°
2026-04-29 00:46 52.82923 -1.33264 308 ft 15 kts 268°
2026-04-29 00:46 52.82919 -1.33439 312 ft 15 kts 268°
2026-04-29 00:47 52.82916 -1.33616 311 ft 16 kts 268°
2026-04-29 00:47 52.82913 -1.33796 309 ft 16 kts 268°
2026-04-29 00:47 52.82910 -1.33975 308 ft 16 kts 268°
2026-04-29 00:47 52.82906 -1.34169 308 ft 17 kts 268°
2026-04-29 00:48 52.82907 -1.34328 309 ft 9 kts 271°
2026-04-29 00:48 52.82879 -1.34412 311 ft 10 kts 195°
2026-04-29 00:48 52.82834 -1.34509 308 ft 12 kts 263°
2026-04-29 00:48 52.82831 -1.34626 306 ft 10 kts 268°
2026-04-29 00:49 52.82829 -1.34741 305 ft 10 kts 268°
2026-04-29 00:49 52.82827 -1.34856 306 ft 10 kts 268°
2026-04-29 00:49 52.82825 -1.34971 307 ft 10 kts 268°
2026-04-29 00:49 52.82822 -1.35086 307 ft 10 kts 268°
2026-04-29 00:50 52.82821 -1.35180 308 ft 6 kts 268°
2026-04-29 00:50 52.82819 -1.35245 308 ft 6 kts 268°
2026-04-29 00:50 52.82811 -1.35306 308 ft 5 kts 237°
2026-04-29 00:50 52.82784 -1.35329 306 ft 4 kts 200°
2026-04-29 00:51 52.82759 -1.35335 305 ft 0 kts 180°